Date String (YYYY-MM-DD hh:mm:ss) UTC,Instrument flags,absolute air pressure of the measurement (hPa),sample flow rate (lpm),inlet stack bypass flow (lpm),air temperature of the measurement (°C),ambient temperature measured by the external sensor (°C),aerosol sample conditioner tube jacket temperature (°C),OPC LED temperature (°C),internal box temperature (°C),relative humidity of the measurement (%),span deviation,mass concentration of particles derived from Lorenz-Mie calculation of OPC scattering (μg/m³),mass concentration of particles derived from Lorenz-Mie calculation of OPC scattering (μg/m³),mass concentration of particles derived from Lorenz-Mie calculation of OPC scattering (μg/m³)
DateTimeUTC,F1_M11,P_M11,Q1_M11,Q2_M11,T1_M11,T2_M11,T3_M11,T4_M11,T5_M11,U1_M11,ZSPAN_M11,X2_M11,X0_M11,X1_M11
2024-05-02 16:00:00,SystemResetWarning,0827.0,4.99,000.00,023.0,022.3,000.0,031.4,024.7,013.0,0000.0,0004.40,0014.64,0003.28
2024-05-02 16:01:00,SystemResetWarning,0827.0,4.99,000.00,023.0,022.3,000.0,031.4,024.7,013.1,0000.0,0004.35,0014.43,0003.27
2024-05-02 16:02:00,SystemResetWarning,0827.0,5.01,000.00,023.0,022.3,000.0,031.3,024.7,013.2,0000.0,0004.32,0014.26,0003.26
2024-05-02 16:03:00,SystemResetWarning,0827.0,5.01,000.00,023.0,022.3,000.0,031.3,024.7,013.6,0000.0,0004.28,0014.12,0003.25
2024-05-02 16:04:00,SystemResetWarning,0827.1,5.01,000.00,023.0,022.3,000.0,031.3,024.7,013.4,0000.0,0004.23,0013.89,0003.23
2024-05-02 16:05:00,SystemResetWarning,0827.0,5.00,000.00,023.0,022.3,000.0,031.3,024.7,013.4,0000.0,0004.19,0012.93,0003.22
2024-05-02 16:06:00,SystemResetWarning,0827.0,5.00,000.00,023.0,022.3,000.0,031.3,024.7,013.3,0000.0,0004.08,0012.36,0003.18
2024-05-02 16:07:00,SystemResetWarning,0827.0,5.00,000.00,023.0,022.3,000.0,031.3,024.8,013.0,0000.0,0004.00,0011.95,0003.13
2024-05-02 16:08:00,SystemResetWarning,0827.0,5.01,000.00,023.0,022.3,000.0,031.4,024.8,013.4,0000.0,0003.98,0012.37,0003.10
2024-05-02 16:09:00,SystemResetWarning,0827.0,5.01,000.00,023.0,022.4,000.0,031.4,024.8,014.0,0000.0,0003.94,0012.65,0003.06
2024-05-02 16:10:00,SystemResetWarning,0827.0,5.00,000.00,023.0,022.4,000.0,031.4,024.8,013.6,0000.0,0003.92,0013.59,0003.02
2024-05-02 16:11:00,SystemResetWarning,0826.9,4.99,000.00,023.0,022.4,000.0,031.4,024.8,013.2,0000.0,0003.92,0013.49,0003.00
2024-05-02 16:12:00,SystemResetWarning,0826.9,5.00,000.00,023.0,022.4,000.0,031.4,024.8,013.2,0000.0,0003.93,0013.24,0002.99
2024-05-02 16:13:00,SystemResetWarning,0826.9,4.99,000.00,023.0,022.5,000.0,031.4,024.8,013.6,0000.0,0003.90,0013.37,0002.97
2024-05-02 16:14:00,SystemResetWarning,0826.9,5.01,000.00,023.1,022.5,000.0,031.4,024.8,013.1,0000.0,0003.92,0013.41,0002.97
2024-05-02 16:15:00,SystemResetWarning,0826.9,5.01,000.00,023.1,022.5,000.0,031.4,024.8,013.3,0000.0,0003.99,0013.59,0002.98
2024-05-02 16:16:00,SystemResetWarning,0826.9,5.00,000.00,023.1,022.5,000.0,031.4,024.8,013.6,0000.0,0004.01,0013.62,0002.99
2024-05-02 16:17:00,SystemResetWarning,0826.9,4.99,000.00,023.1,022.5,000.0,031.4,024.9,012.9,0000.0,0004.04,0013.20,0003.00
2024-05-02 16:18:00,SystemResetWarning,0826.8,5.00,000.00,023.1,022.5,000.0,031.4,024.8,013.0,0000.0,0004.02,0012.74,0003.01
2024-05-02 16:19:00,SystemResetWarning,0826.8,5.00,000.00,023.1,022.5,000.0,031.4,024.9,013.4,0000.0,0004.04,0012.95,0003.04
2024-05-02 16:20:00,SystemResetWarning,0826.9,5.01,000.00,023.1,022.5,000.0,031.4,024.9,013.0,0000.0,0004.04,0012.69,0003.03
2024-05-02 16:21:00,SystemResetWarning,0826.9,5.01,000.00,023.1,022.5,000.0,031.4,024.8,012.8,0000.0,0004.12,0011.67,0003.05
2024-05-02 16:22:00,SystemResetWarning,0826.9,5.00,000.00,023.1,022.5,000.0,031.4,024.8,012.9,0000.0,0004.11,0010.53,0003.05
2024-05-02 16:23:00,SystemResetWarning,0826.9,4.98,000.00,023.1,022.5,000.0,031.4,024.9,012.9,0000.0,0004.08,0010.22,0003.01
2024-05-02 16:24:00,SystemResetWarning,0826.9,5.00,000.00,023.2,022.6,000.0,031.4,024.9,013.3,0000.0,0004.09,0010.32,0002.99
2024-05-02 16:25:00,SystemResetWarning,0826.9,5.01,000.00,023.2,022.6,000.0,031.4,024.9,013.0,0000.0,0004.16,0011.31,0003.00
2024-05-02 16:26:00,SystemResetWarning,0826.9,5.00,000.00,023.2,022.6,000.0,031.5,024.9,013.2,0000.0,0004.15,0011.37,0002.98
2024-05-02 16:27:00,SystemResetWarning,0826.8,4.99,000.00,023.2,022.6,000.0,031.5,024.9,012.8,0000.0,0004.12,0010.83,0002.97
2024-05-02 16:28:00,SystemResetWarning,0826.8,4.99,000.00,023.2,022.6,000.0,031.5,024.9,012.9,0000.0,0004.12,0010.61,0002.95
2024-05-02 16:29:00,SystemResetWarning,0826.8,5.01,000.00,023.2,022.5,000.0,031.5,024.9,012.9,0000.0,0004.14,0011.09,0002.93
2024-05-02 16:30:00,SystemResetWarning,0826.8,5.01,000.00,023.2,022.6,000.0,031.5,024.9,013.6,0000.0,0004.12,0011.43,0002.90
2024-05-02 16:31:00,SystemResetWarning,0826.8,5.01,000.00,023.2,022.6,000.0,031.5,024.9,012.6,0000.0,0004.12,0011.84,0002.89
2024-05-02 16:32:00,SystemResetWarning,0826.8,5.00,000.00,023.2,022.6,000.0,031.5,024.9,013.0,0000.0,0004.10,0011.97,0002.88
2024-05-02 16:33:00,SystemResetWarning,0826.8,4.99,000.00,023.2,022.7,000.0,031.5,025.0,012.8,0000.0,0004.10,0012.85,0002.86
2024-05-02 16:34:00,SystemResetWarning,0826.7,4.98,000.00,023.3,022.7,000.0,031.5,025.0,012.7,0000.0,0004.13,0013.11,0002.88
2024-05-02 16:35:00,SystemResetWarning,0826.8,5.00,000.00,023.3,022.7,000.0,031.5,025.0,012.4,0000.0,0004.15,0012.99,0002.90
2024-05-02 16:36:00,SystemResetWarning,0826.8,5.01,000.00,023.3,022.7,000.0,031.5,025.0,012.1,0000.0,0004.16,0012.43,0002.91
2024-05-02 16:37:00,SystemResetWarning,0826.7,5.00,000.00,023.3,022.7,000.0,031.5,025.0,012.1,0000.0,0004.17,0012.36,0002.92
2024-05-02 16:38:00,SystemResetWarning,0826.6,5.01,000.00,023.3,022.8,000.0,031.6,025.0,012.7,0000.0,0004.16,0012.62,0002.90
2024-05-02 16:39:00,SystemResetWarning,0826.6,5.00,000.00,023.3,022.8,000.0,031.6,025.1,012.0,0000.0,0004.17,0012.67,0002.90
2024-05-02 16:40:00,SystemResetWarning,0826.6,5.00,000.00,023.3,022.8,000.0,031.6,025.0,011.6,0000.0,0004.15,0012.15,0002.90
2024-05-02 16:41:00,SystemResetWarning,0826.6,4.99,000.00,023.3,022.8,000.0,031.6,025.0,011.9,0000.0,0004.14,0011.01,0002.91
2024-05-02 16:42:00,SystemResetWarning,0826.6,4.99,000.00,023.4,022.9,000.0,031.6,025.1,012.4,0000.0,0004.12,0012.34,0002.90
2024-05-02 16:43:00,SystemResetWarning,0826.6,5.00,000.00,023.4,022.9,000.0,031.6,025.2,012.0,0000.0,0004.07,0013.20,0002.90
2024-05-02 16:44:00,SystemResetWarning,0826.6,5.00,000.00,023.4,022.9,000.0,031.6,025.2,012.1,0000.0,0004.05,0013.22,0002.90
2024-05-02 16:45:00,SystemResetWarning,0826.7,5.01,000.00,023.4,022.9,000.0,031.6,025.2,012.4,0000.0,0004.03,0013.30,0002.88
2024-05-02 16:46:00,SystemResetWarning,0826.7,5.00,000.00,023.4,022.9,000.0,031.7,025.2,012.0,0000.0,0003.95,0013.21,0002.83
2024-05-02 16:47:00,SystemResetWarning,0826.6,5.01,000.00,023.4,023.0,000.0,031.7,025.2,012.6,0000.0,0003.91,0013.09,0002.80
2024-05-02 16:48:00,SystemResetWarning,0826.6,5.00,000.00,023.5,023.0,000.0,031.7,025.3,012.0,0000.0,0003.85,0013.10,0002.76
2024-05-02 16:49:00,SystemResetWarning,0826.6,4.99,000.00,023.5,023.0,000.0,031.7,025.3,011.9,0000.0,0003.84,0012.85,0002.74
2024-05-02 16:50:00,SystemResetWarning,0826.6,4.99,000.00,023.5,023.0,000.0,031.7,025.2,012.4,0000.0,0003.80,0013.11,0002.71
2024-05-02 16:51:00,SystemResetWarning,0826.6,5.01,000.00,023.5,023.0,000.0,031.8,025.3,012.3,0000.0,0003.79,0013.88,0002.69
2024-05-02 16:52:00,SystemResetWarning,0826.6,5.00,000.00,023.5,023.0,000.0,031.8,025.2,012.3,0000.0,0003.79,0014.42,0002.68
2024-05-02 16:53:00,SystemResetWarning,0826.5,5.00,000.00,023.5,023.0,000.0,031.8,025.2,012.0,0000.0,0003.78,0013.25,0002.65
2024-05-02 16:54:00,SystemResetWarning,0826.5,5.00,000.00,023.5,023.0,000.0,031.8,025.2,012.5,0000.0,0003.78,0012.51,0002.61
2024-05-02 16:55:00,SystemResetWarning,0826.4,5.00,000.00,023.6,023.0,000.0,031.8,025.3,011.9,0000.0,0003.76,0012.07,0002.59
2024-05-02 16:56:00,SystemResetWarning,0826.4,5.00,000.00,023.6,023.0,000.0,031.8,025.3,012.0,0000.0,0003.77,0012.07,0002.59
2024-05-02 16:57:00,SystemResetWarning,0826.4,5.00,000.00,023.6,023.1,000.0,031.8,025.3,012.1,0000.0,0003.84,0012.33,0002.61
2024-05-02 16:58:00,SystemResetWarning,0826.4,4.99,000.00,023.6,023.1,000.0,031.8,025.4,012.0,0000.0,0003.83,0012.16,0002.60
2024-05-02 16:59:00,SystemResetWarning,0826.4,4.99,000.00,023.6,023.1,000.0,031.9,025.4,011.4,0000.0,0003.81,0011.96,0002.61
